TimeEDT,TemperatureF,Dew PointF,Humidity,Sea Level PressureIn,VisibilityMPH,Wind Direction,Wind SpeedMPH,Gust SpeedMPH,PrecipitationIn,Events,Conditions,WindDirDegrees,DateUTC
12:53 AM,55.9,37.9,51,29.82,10.0,WSW,3.5,-,N/A,,Overcast,240,2012-10-20 04:53:00
1:53 AM,55.9,37.9,51,29.83,10.0,West,5.8,-,N/A,,Overcast,270,2012-10-20 05:53:00
2:53 AM,53.1,39.0,59,29.84,10.0,Calm,Calm,-,N/A,,Scattered Clouds,0,2012-10-20 06:53:00
3:53 AM,50.0,39.9,68,29.85,10.0,Calm,Calm,-,N/A,,Mostly Cloudy,0,2012-10-20 07:53:00
4:53 AM,51.1,39.9,66,29.84,10.0,Calm,Calm,-,N/A,,Overcast,0,2012-10-20 08:53:00
5:53 AM,51.1,41.0,68,29.87,10.0,Calm,Calm,-,N/A,,Overcast,0,2012-10-20 09:53:00
6:53 AM,52.0,39.9,63,29.89,10.0,Calm,Calm,-,N/A,,Overcast,0,2012-10-20 10:53:00
7:53 AM,52.0,41.0,66,29.90,10.0,Calm,Calm,-,N/A,,Overcast,0,2012-10-20 11:53:00
8:53 AM,52.0,42.1,69,29.91,10.0,Calm,Calm,-,N/A,,Overcast,0,2012-10-20 12:53:00
9:53 AM,53.1,42.1,66,29.93,10.0,Calm,Calm,-,N/A,,Overcast,0,2012-10-20 13:53:00
10:53 AM,57.9,39.0,49,29.94,10.0,West,6.9,-,N/A,,Overcast,260,2012-10-20 14:53:00
11:53 AM,59.0,39.9,49,29.94,10.0,SSW,5.8,-,N/A,,Mostly Cloudy,210,2012-10-20 15:53:00
12:53 PM,61.0,41.0,48,29.93,10.0,Variable,4.6,-,N/A,,Partly Cloudy,0,2012-10-20 16:53:00
1:53 PM,62.1,39.9,44,29.92,10.0,Variable,3.5,-,N/A,,Mostly Cloudy,0,2012-10-20 17:53:00
2:53 PM,63.0,39.9,43,29.90,10.0,SSW,6.9,-,N/A,,Mostly Cloudy,200,2012-10-20 18:53:00
3:53 PM,63.0,41.0,45,29.91,10.0,Variable,5.8,-,N/A,,Scattered Clouds,0,2012-10-20 19:53:00
4:53 PM,64.0,41.0,43,29.91,10.0,Variable,3.5,-,N/A,,Partly Cloudy,0,2012-10-20 20:53:00
5:53 PM,62.1,41.0,46,29.93,10.0,Variable,4.6,-,N/A,,Clear,0,2012-10-20 21:53:00
6:53 PM,60.1,42.1,51,29.96,10.0,West,8.1,-,N/A,,Clear,280,2012-10-20 22:53:00
7:53 PM,55.9,43.0,62,29.99,10.0,Calm,Calm,-,N/A,,Partly Cloudy,0,2012-10-20 23:53:00
8:53 PM,54.0,44.1,69,30.01,10.0,Calm,Calm,-,N/A,,Mostly Cloudy,0,2012-10-21 00:53:00
9:53 PM,53.1,45.0,74,30.02,10.0,Calm,Calm,-,N/A,,Mostly Cloudy,0,2012-10-21 01:53:00
10:53 PM,50.0,44.1,80,30.04,10.0,Calm,Calm,-,N/A,,Partly Cloudy,0,2012-10-21 02:53:00
11:53 PM,46.9,43.0,86,30.05,10.0,Calm,Calm,-,N/A,,Clear,0,2012-10-21 03:53:00